This is the latest recevied weather packets stored in our database for station/object KB3VSP. If no packets are shown the sender has not sent any weather packets the latest 10 day(s).
| Time | Temp. | Humidity | Pressure | Rain* | Wind** | Luminosity | Snow |
|---|---|---|---|---|---|---|---|
| 1777750005 | 5° C | 83% | 1016.3 hPa | 0 mm | - | 60 W/m² | - |
| 1777749704 | 5° C | 82% | 1016.3 hPa | 0 mm | - | 48 W/m² | - |
| 1777749400 | 5° C | 81% | 1016.4 hPa | 0 mm | - | 33 W/m² | - |
| 1777749097 | 5° C | 82% | 1016.3 hPa | 0 mm | - | 39 W/m² | - |
| 1777748795 | 5° C | 82% | 1016.5 hPa | 0 mm | - | 69 W/m² | - |
| 1777748492 | 5° C | 81% | 1016.4 hPa | 0 mm | - | 52 W/m² | - |
| 1777748187 | 5.56° C | 81% | 1016.3 hPa | 0 mm | - | 39 W/m² | - |
| 1777747884 | 5.56° C | 79% | 1016.5 hPa | 0 mm | - | 52 W/m² | - |
| 1777747580 | 5.56° C | 81% | 1016.4 hPa | 0 mm | - | 126 W/m² | - |
| 1777747275 | 5.56° C | 81% | 1016.6 hPa | 0 mm | - | 105 W/m² | - |
| 1777746972 | 5.56° C | 81% | 1016.4 hPa | 0 mm | - | 108 W/m² | - |
| 1777746669 | 5.56° C | 82% | 1016.5 hPa | 0 mm | - | 122 W/m² | - |
| 1777746364 | 5.56° C | 83% | 1016.6 hPa | 0 mm | - | 61 W/m² | - |
| 1777746059 | 6.11° C | 82% | 1016.6 hPa | 0 mm | - | 45 W/m² | - |
| 1777745757 | 6.11° C | 84% | 1016.4 hPa | 0 mm | - | 222 W/m² | - |
| 1777745450 | 5.56° C | 83% | 1016.3 hPa | 0 mm | - | 239 W/m² | - |
| 1777745147 | 5.56° C | 84% | 1016.6 hPa | 0 mm | - | 153 W/m² | - |
| 1777744843 | 5.56° C | 85% | 1016.6 hPa | 0 mm | - | 114 W/m² | - |
| 1777744538 | 5.56° C | 86% | 1016.5 hPa | 0 mm | - | 104 W/m² | - |
| 1777744234 | 5.56° C | 86% | 1016.6 hPa | 0 mm | - | 219 W/m² | - |
| 1777743931 | 5° C | 88% | 1016.6 hPa | 0 mm | - | 177 W/m² | - |
| 1777743628 | 5° C | 87% | 1016.6 hPa | 0 mm | - | 132 W/m² | - |
| 1777743325 | 5° C | 88% | 1016.4 hPa | 0 mm | - | 65 W/m² | - |
| 1777743023 | 5° C | 88% | 1016.2 hPa | 0 mm | - | 78 W/m² | - |
| 1777742720 | 5° C | 88% | 1016.5 hPa | 0 mm | - | 120 W/m² | - |
* Rain latest hour (hover to see other rain measurements)
** Current wind speed in m/s (hover to see current wind gust speed)